Wormley Airport

Jump to: basic info | weather | runways | comments

Related pages: nearby airports | nearby navaids | notams | map

Basic information (top)

Codes: 85LL
Location: lon 41.683899, lat -88.262299, elev 680 ft / 207 m msl
Status: small_airport

Weather (top)

Current conditions for Lewis University Airport 9nm (16km) ESE (rec'd 2014/10/20 17:35Z):

KLOT 201735Z AUTO 31005KT 10SM CLR 17/08 A2985

Airport forecast for Dupage Airport 13nm (25km) N (rec'd 2014/10/20 12:27Z):

TAF KDPA 201125Z 2012/2112 25007KT P6SM SCT070 
     FM201400 29009KT P6SM SCT035 
     FM201700 33010KT P6SM BKN030 
     FM210200 35007KT P6SM BKN035

Runways (top)

N/S: 2,300 x 100 ft (701 x 30 m) — grass — not lighted

Latest comments (top)

No comments yet for Wormley Airport

More... (top)

See also NOTAMs and nearby airports and navaids, or visit the Wormley Airport page at the main OurAirports website..